Location: Boursonne
(49.2024°N, 3.0468°E)
Time: 00:15:25
(UTC+00:00)

Cosmos 1703 Rocket - Pass Details

Date: 03 March 2021
Orbit: 604 x 634 km, 82.5° (Epoch: 12 April)

Event Time Altitude Azimuth Distance (km) Brightness Sun altitude
Rises 18:46:48 0° 353° (N) 2,916 7.2 -12.6°
Reaches altitude 10° 18:49:06 10° 358° (N) 1,999 6.3 -13.0°
Maximum altitude 18:53:27 55° 77° (ENE) 748 3.6 -13.7°
Drops below altitude 10° 18:57:43 10° 155° (SSE) 1,965 5.8 -14.4°
Enters shadow 18:59:32 - 159° (SSE) 2,690 6.6 -14.7°
